BTK4766 WARR-WADL

Flight info

Callsign BTK4766
Flight time 0h 44m
Altitude 27000
Route ENTAS W34 AGUNG
Aircraft A320/M-SDE3FGHIRWY/LB1

Departure

Time 2026-05-05 04:34
Airport Juanda International Airport (WARR)

Arrival

Time 2026-05-05 05:18
Airport Lombok International Airport (WADL)
Time Latitude Longitude Altitude Speed Heading
2026-05-05 04:11 -7.37594 112.79534 9 ft 0 kts
2026-05-05 04:21 -7.37603 112.79533 9 ft 2 kts
2026-05-05 04:21 -7.37619 112.79530 9 ft 2 kts
2026-05-05 04:21 -7.37636 112.79528 9 ft 2 kts
2026-05-05 04:21 -7.37652 112.79525 11 ft 2 kts
2026-05-05 04:22 -7.37668 112.79523 11 ft 2 kts 336°
2026-05-05 04:22 -7.37682 112.79532 11 ft 2 kts 308°
2026-05-05 04:22 -7.37691 112.79546 9 ft 2 kts 289°
2026-05-05 04:22 -7.37694 112.79553 9 ft 0 kts 281°
2026-05-05 04:26 -7.37693 112.79546 9 ft 2 kts 280°
2026-05-05 04:27 -7.37688 112.79518 9 ft 7 kts 278°
2026-05-05 04:27 -7.37689 112.79466 9 ft 8 kts 243°
2026-05-05 04:27 -7.37744 112.79441 9 ft 10 kts 189°
2026-05-05 04:27 -7.37816 112.79431 9 ft 11 kts 188°
2026-05-05 04:28 -7.37898 112.79408 10 ft 13 kts 218°
2026-05-05 04:28 -7.37909 112.79316 9 ft 15 kts 279°
2026-05-05 04:28 -7.37892 112.79207 11 ft 17 kts 279°
2026-05-05 04:28 -7.37875 112.79103 9 ft 16 kts 279°
2026-05-05 04:29 -7.37857 112.78987 9 ft 18 kts 279°
2026-05-05 04:29 -7.37836 112.78859 9 ft 20 kts 279°
2026-05-05 04:29 -7.37814 112.78722 9 ft 20 kts 279°
2026-05-05 04:29 -7.37789 112.78577 9 ft 22 kts 279°
2026-05-05 04:30 -7.37764 112.78417 9 ft 24 kts 279°
2026-05-05 04:30 -7.37736 112.78243 9 ft 26 kts 279°
2026-05-05 04:30 -7.37706 112.78056 9 ft 28 kts 279°
2026-05-05 04:30 -7.37674 112.77857 10 ft 30 kts 279°
2026-05-05 04:31 -7.37642 112.77663 9 ft 29 kts 280°
2026-05-05 04:31 -7.37610 112.77481 9 ft 14 kts 279°
2026-05-05 04:31 -7.37627 112.77398 9 ft 9 kts 225°
2026-05-05 04:31 -7.37690 112.77378 8 ft 9 kts 190°
2026-05-05 04:32 -7.37733 112.77370 8 ft 6 kts 190°
2026-05-05 04:32 -7.37737 112.77370 8 ft 1 kts 190°
2026-05-05 04:32 -7.37751 112.77368 9 ft 4 kts 185°
2026-05-05 04:32 -7.37773 112.77389 10 ft 5 kts 111°
2026-05-05 04:33 -7.37779 112.77430 9 ft 7 kts 99°
2026-05-05 04:33 -7.37814 112.77642 8 ft 65 kts 99°
2026-05-05 04:33 -7.37918 112.78290 9 ft 122 kts 99°
2026-05-05 04:33 -7.38079 112.79292 13 ft 166 kts 99°
2026-05-05 04:34 -7.38283 112.80463 474 ft 170 kts 99°
2026-05-05 04:34 -7.38490 112.81678 929 ft 185 kts 99°
2026-05-05 04:34 -7.38709 112.83030 1229 ft 207 kts 99°
2026-05-05 04:34 -7.38949 112.84547 1520 ft 231 kts 99°
2026-05-05 04:35 -7.39198 112.86116 2438 ft 222 kts 99°
2026-05-05 04:35 -7.39442 112.87649 3271 ft 221 kts 99°
2026-05-05 04:35 -7.39687 112.89188 3993 ft 224 kts 99°
2026-05-05 04:35 -7.39936 112.90744 4720 ft 226 kts 99°
2026-05-05 04:36 -7.40191 112.92316 5431 ft 229 kts 100°
2026-05-05 04:36 -7.40499 112.93900 6138 ft 231 kts 102°
2026-05-05 04:36 -7.40841 112.95483 6835 ft 232 kts 102°
2026-05-05 04:36 -7.41194 112.97080 7502 ft 235 kts 102°
2026-05-05 04:37 -7.41552 112.98697 8176 ft 238 kts 102°
2026-05-05 04:37 -7.41909 113.00312 8850 ft 240 kts 102°
2026-05-05 04:37 -7.42271 113.01965 9524 ft 243 kts 102°
2026-05-05 04:37 -7.42636 113.03639 10160 ft 246 kts 102°
2026-05-05 04:38 -7.43004 113.05325 10783 ft 248 kts 102°
2026-05-05 04:38 -7.43375 113.07030 11412 ft 250 kts 102°
2026-05-05 04:38 -7.43747 113.08748 12038 ft 252 kts 102°
2026-05-05 04:38 -7.44122 113.10482 12666 ft 254 kts 102°
2026-05-05 04:39 -7.44500 113.12232 13291 ft 256 kts 102°
2026-05-05 04:39 -7.44883 113.13995 13880 ft 259 kts 102°
2026-05-05 04:39 -7.45271 113.15774 14404 ft 262 kts 102°
2026-05-05 04:39 -7.45661 113.17573 14920 ft 264 kts 102°
2026-05-05 04:40 -7.46056 113.19391 15431 ft 267 kts 102°
2026-05-05 04:40 -7.46455 113.21228 15941 ft 270 kts 102°
2026-05-05 04:40 -7.46855 113.23081 16438 ft 272 kts 102°
2026-05-05 04:40 -7.47261 113.24958 16934 ft 275 kts 102°
2026-05-05 04:41 -7.47670 113.26852 17425 ft 278 kts 102°
2026-05-05 04:41 -7.48083 113.28768 17906 ft 281 kts 102°
2026-05-05 04:41 -7.48499 113.30702 18365 ft 284 kts 102°
2026-05-05 04:41 -7.48915 113.32630 18782 ft 286 kts 102°
2026-05-05 04:42 -7.49339 113.34591 19211 ft 287 kts 102°
2026-05-05 04:42 -7.49768 113.36565 19642 ft 289 kts 102°
2026-05-05 04:42 -7.50200 113.38553 20067 ft 291 kts 102°
2026-05-05 04:42 -7.50635 113.40556 20471 ft 294 kts 102°
2026-05-05 04:43 -7.51071 113.42578 20879 ft 296 kts 102°
2026-05-05 04:43 -7.51360 113.43922 21145 ft 297 kts 102°
2026-05-05 04:43 -7.51798 113.45968 21529 ft 300 kts 102°
2026-05-05 04:43 -7.52240 113.48035 21915 ft 303 kts 102°
2026-05-05 04:44 -7.52686 113.50115 22296 ft 305 kts 102°
2026-05-05 04:44 -7.53137 113.52213 22673 ft 308 kts 102°
2026-05-05 04:44 -7.53593 113.54333 23023 ft 310 kts 102°
2026-05-05 04:44 -7.54058 113.56475 23390 ft 313 kts 102°
2026-05-05 04:45 -7.54526 113.58628 23688 ft 316 kts 102°
2026-05-05 04:45 -7.54995 113.60797 23990 ft 317 kts 102°
2026-05-05 04:45 -7.55463 113.62980 24303 ft 319 kts 102°
2026-05-05 04:45 -7.55925 113.65142 24597 ft 321 kts 102°
2026-05-05 04:46 -7.56398 113.67352 24883 ft 324 kts 102°
2026-05-05 04:46 -7.56875 113.69581 25184 ft 326 kts 102°
2026-05-05 04:46 -7.57356 113.71821 25491 ft 328 kts 102°
2026-05-05 04:46 -7.57838 113.74069 25792 ft 330 kts 102°
2026-05-05 04:47 -7.58325 113.76335 26085 ft 332 kts 102°
2026-05-05 04:47 -7.58816 113.78612 26387 ft 333 kts 102°
2026-05-05 04:47 -7.59309 113.80900 26687 ft 335 kts 102°
2026-05-05 04:47 -7.59804 113.83214 26867 ft 342 kts 102°
2026-05-05 04:48 -7.60315 113.85595 26906 ft 353 kts 102°
2026-05-05 04:48 -7.60840 113.88058 26908 ft 366 kts 102°
2026-05-05 04:48 -7.61384 113.90612 26908 ft 379 kts 102°
2026-05-05 04:48 -7.61948 113.93249 26908 ft 391 kts 102°
2026-05-05 04:49 -7.62531 113.95974 26906 ft 404 kts 102°
2026-05-05 04:49 -7.63131 113.98783 26908 ft 416 kts 102°
2026-05-05 04:49 -7.63744 114.01638 26907 ft 427 kts 102°
2026-05-05 04:49 -7.64379 114.04606 26903 ft 438 kts 102°
2026-05-05 04:50 -7.65026 114.07628 26902 ft 444 kts 102°
2026-05-05 04:50 -7.65679 114.10683 26900 ft 447 kts 102°
2026-05-05 04:50 -7.66330 114.13745 26904 ft 448 kts 102°
2026-05-05 04:50 -7.66985 114.16815 26903 ft 448 kts 102°
2026-05-05 04:51 -7.67643 114.19888 26904 ft 448 kts 102°
2026-05-05 04:51 -7.68300 114.22954 26904 ft 448 kts 102°
2026-05-05 04:51 -7.68957 114.26019 26904 ft 448 kts 102°
2026-05-05 04:51 -7.69617 114.29086 26904 ft 448 kts 102°
2026-05-05 04:52 -7.70276 114.32159 26904 ft 448 kts 102°
2026-05-05 04:52 -7.70930 114.35222 26904 ft 448 kts 102°
2026-05-05 04:52 -7.71584 114.38291 26905 ft 448 kts 102°
2026-05-05 04:52 -7.72238 114.41361 26899 ft 447 kts 102°
2026-05-05 04:53 -7.72892 114.44430 26900 ft 447 kts 102°
2026-05-05 04:53 -7.73545 114.47496 26900 ft 447 kts 102°
2026-05-05 04:53 -7.74198 114.50560 26896 ft 447 kts 102°
2026-05-05 04:53 -7.74848 114.53626 26896 ft 447 kts 102°
2026-05-05 04:54 -7.75496 114.56695 26892 ft 447 kts 102°
2026-05-05 04:54 -7.76137 114.59727 26891 ft 448 kts 102°
2026-05-05 04:54 -7.76789 114.62797 26887 ft 448 kts 102°
2026-05-05 04:54 -7.77445 114.65869 26891 ft 448 kts 102°
2026-05-05 04:55 -7.78101 114.68937 26888 ft 448 kts 102°
2026-05-05 04:55 -7.78757 114.72009 26895 ft 448 kts 102°
2026-05-05 04:55 -7.79411 114.75080 26893 ft 448 kts 102°
2026-05-05 04:55 -7.80065 114.78156 26896 ft 448 kts 102°
2026-05-05 04:56 -7.80718 114.81228 26895 ft 448 kts 102°
2026-05-05 04:56 -7.81370 114.84303 26896 ft 448 kts 102°
2026-05-05 04:56 -7.82018 114.87368 26736 ft 444 kts 102°
2026-05-05 04:56 -7.82661 114.90400 26498 ft 441 kts 102°
2026-05-05 04:57 -7.83303 114.93408 26262 ft 438 kts 102°
2026-05-05 04:57 -7.83942 114.96414 26031 ft 437 kts 102°
2026-05-05 04:57 -7.84565 114.99363 25802 ft 435 kts 102°
2026-05-05 04:57 -7.85196 115.02340 25572 ft 434 kts 103°
2026-05-05 04:58 -7.85825 115.05313 25341 ft 433 kts 103°
2026-05-05 04:58 -7.86454 115.08274 25115 ft 432 kts 103°
2026-05-05 04:58 -7.87077 115.11223 24845 ft 428 kts 103°
2026-05-05 04:58 -7.87693 115.14155 24316 ft 426 kts 103°
2026-05-05 04:59 -7.88310 115.17074 23759 ft 425 kts 103°
2026-05-05 04:59 -7.88927 115.19984 23178 ft 424 kts 103°
2026-05-05 04:59 -7.89540 115.22881 22635 ft 421 kts 103°
2026-05-05 04:59 -7.90148 115.25757 22138 ft 417 kts 103°
2026-05-05 05:00 -7.90753 115.28609 21640 ft 415 kts 103°
2026-05-05 05:00 -7.91355 115.31444 21155 ft 412 kts 103°
2026-05-05 05:00 -7.91952 115.34261 20671 ft 410 kts 102°
2026-05-05 05:00 -7.92544 115.37072 20160 ft 409 kts 102°
2026-05-05 05:01 -7.93133 115.39875 19664 ft 408 kts 102°
2026-05-05 05:01 -7.93713 115.42632 19140 ft 407 kts 102°
2026-05-05 05:01 -7.94298 115.45421 18621 ft 406 kts 102°
2026-05-05 05:01 -7.94880 115.48206 18057 ft 403 kts 102°
2026-05-05 05:02 -7.95447 115.50915 17543 ft 386 kts 102°
2026-05-05 05:02 -7.95987 115.53480 17260 ft 363 kts 102°
2026-05-05 05:02 -7.96504 115.55930 16663 ft 353 kts 102°
2026-05-05 05:02 -7.97009 115.58325 15998 ft 347 kts 102°
2026-05-05 05:03 -7.97508 115.60695 15489 ft 343 kts 102°
2026-05-05 05:03 -7.98000 115.63040 15003 ft 340 kts 102°
2026-05-05 05:03 -7.98526 115.65360 14525 ft 339 kts 107°
2026-05-05 05:03 -7.99448 115.67545 14062 ft 339 kts 120°
2026-05-05 05:04 -8.00801 115.69462 13675 ft 336 kts 131°
2026-05-05 05:04 -8.02518 115.71047 13291 ft 332 kts 142°
2026-05-05 05:04 -8.04358 115.72456 12827 ft 331 kts 142°
2026-05-05 05:04 -8.06156 115.73843 12455 ft 328 kts 142°
2026-05-05 05:05 -8.07956 115.75232 12077 ft 325 kts 142°
2026-05-05 05:05 -8.09744 115.76617 11706 ft 322 kts 142°
2026-05-05 05:05 -8.11516 115.77988 11334 ft 320 kts 142°
2026-05-05 05:05 -8.13277 115.79352 10971 ft 318 kts 142°
2026-05-05 05:06 -8.15025 115.80705 10694 ft 317 kts 142°
2026-05-05 05:06 -8.16782 115.82022 10503 ft 313 kts 147°
2026-05-05 05:06 -8.18635 115.83153 10393 ft 315 kts 148°
2026-05-05 05:06 -8.20517 115.84294 10248 ft 315 kts 148°
2026-05-05 05:07 -8.22396 115.85431 10116 ft 315 kts 148°
2026-05-05 05:07 -8.24274 115.86565 9976 ft 314 kts 148°
2026-05-05 05:07 -8.26150 115.87701 9686 ft 313 kts 148°
2026-05-05 05:07 -8.28006 115.88826 9386 ft 311 kts 148°
2026-05-05 05:08 -8.29844 115.89942 9165 ft 304 kts 148°
2026-05-05 05:08 -8.31624 115.91021 9038 ft 293 kts 148°
2026-05-05 05:08 -8.33344 115.92066 8892 ft 284 kts 148°
2026-05-05 05:08 -8.35015 115.93079 8420 ft 278 kts 148°
2026-05-05 05:09 -8.36663 115.94078 8094 ft 277 kts 148°
2026-05-05 05:09 -8.38320 115.95082 7832 ft 279 kts 148°
2026-05-05 05:09 -8.39948 115.96072 7587 ft 276 kts 148°
2026-05-05 05:09 -8.41589 115.97068 7341 ft 275 kts 148°
2026-05-05 05:10 -8.43225 115.98061 7092 ft 273 kts 148°
2026-05-05 05:10 -8.44852 115.99047 6849 ft 273 kts 148°
2026-05-05 05:10 -8.46477 116.00033 6611 ft 272 kts 148°
2026-05-05 05:10 -8.48093 116.01015 6369 ft 271 kts 148°
2026-05-05 05:11 -8.49701 116.01991 6112 ft 269 kts 148°
2026-05-05 05:11 -8.51305 116.02967 5865 ft 268 kts 148°
2026-05-05 05:11 -8.52897 116.03936 5620 ft 264 kts 147°
2026-05-05 05:11 -8.54427 116.04867 5391 ft 250 kts 148°
2026-05-05 05:12 -8.55892 116.05758 5188 ft 243 kts 147°
2026-05-05 05:12 -8.57331 116.06628 4963 ft 239 kts 148°
2026-05-05 05:12 -8.58740 116.07480 4749 ft 234 kts 148°
2026-05-05 05:12 -8.60108 116.08340 4531 ft 229 kts 141°
2026-05-05 05:13 -8.61190 116.09485 4301 ft 224 kts 128°
2026-05-05 05:13 -8.62161 116.10686 4097 ft 219 kts 128°
2026-05-05 05:13 -8.63122 116.11873 3835 ft 218 kts 128°
2026-05-05 05:13 -8.64056 116.13032 3561 ft 212 kts 128°
2026-05-05 05:14 -8.64973 116.14170 3336 ft 206 kts 128°
2026-05-05 05:14 -8.65853 116.15263 3051 ft 194 kts 128°
2026-05-05 05:14 -8.66676 116.16285 2797 ft 181 kts 129°
2026-05-05 05:14 -8.67433 116.17225 2580 ft 165 kts 128°
2026-05-05 05:15 -8.68115 116.18072 2407 ft 148 kts 130°
2026-05-05 05:15 -8.68746 116.18857 2213 ft 142 kts 130°
2026-05-05 05:15 -8.69365 116.19626 2025 ft 140 kts 129°
2026-05-05 05:15 -8.69980 116.20389 1846 ft 140 kts 130°
2026-05-05 05:16 -8.70595 116.21153 1666 ft 140 kts 130°
2026-05-05 05:16 -8.71207 116.21914 1483 ft 140 kts 130°
2026-05-05 05:16 -8.71818 116.22673 1311 ft 139 kts 130°
2026-05-05 05:16 -8.72427 116.23430 1132 ft 139 kts 130°
2026-05-05 05:17 -8.73036 116.24186 950 ft 138 kts 129°
2026-05-05 05:17 -8.73641 116.24938 760 ft 138 kts 129°
2026-05-05 05:17 -8.74239 116.25697 619 ft 139 kts 129°
2026-05-05 05:17 -8.74853 116.26446 390 ft 136 kts 130°
2026-05-05 05:18 -8.75429 116.27156 330 ft 115 kts 128°
2026-05-05 05:18 -8.75816 116.27641 333 ft 55 kts 129°
2026-05-05 05:18 -8.75959 116.27818 335 ft 19 kts 133°
2026-05-05 05:18 -8.76048 116.27798 334 ft 15 kts 221°
2026-05-05 05:19 -8.76106 116.27750 331 ft 9 kts 219°
2026-05-05 05:19 -8.76162 116.27705 334 ft 12 kts 219°
2026-05-05 05:19 -8.76156 116.27631 333 ft 13 kts 308°
2026-05-05 05:19 -8.76107 116.27570 334 ft 11 kts 309°
2026-05-05 05:20 -8.76091 116.27550 332 ft 2 kts 309°
2026-05-05 05:20 -8.76082 116.27533 332 ft 4 kts 283°
2026-05-05 05:20 -8.76098 116.27510 332 ft 5 kts 216°
2026-05-05 05:20 -8.76132 116.27483 332 ft 7 kts 219°
2026-05-05 05:21 -8.76147 116.27471 332 ft 0 kts 219°